EN

Hourly Weather Ludva

Today, 28 November, Saturday

Time Temperature Precipitation Wind Pressure Humidity
00:00 0°C° 0 mm 4 mps 758 mmHg 87%
01:00 0°C° 0 mm 4 mps 759 mmHg 86%
02:00 0°C° 0 mm 5 mps 759 mmHg 83%
03:00 0°C° 0 mm 5 mps 759 mmHg 86%
04:00 0°C° 0 mm 5 mps 760 mmHg 89%
05:00 0°C° 0 mm 5 mps 760 mmHg 92%
06:00 0°C° 0.1 mm 5 mps 760 mmHg 92%
07:00 0°C° 0.1 mm 5 mps 761 mmHg 91%
08:00 0°C° 0 mm 4 mps 761 mmHg 92%
09:00 0°C° 0 mm 4 mps 762 mmHg 91%
10:00 0°C° 0 mm 5 mps 763 mmHg 91%
11:00 0°C° 0 mm 5 mps 763 mmHg 91%
12:00 0°C° 0 mm 5 mps 764 mmHg 88%
13:00 0°C° 0 mm 5 mps 764 mmHg 85%
14:00 0°C° 0 mm 4 mps 764 mmHg 85%
15:00 -1°C° 0 mm 4 mps 765 mmHg 85%
16:00 -1°C° 0 mm 4 mps 765 mmHg 86%
17:00 -1°C° 0 mm 4 mps 765 mmHg 87%
18:00 -1°C° 0 mm 4 mps 766 mmHg 86%
19:00 -1°C° 0 mm 4 mps 766 mmHg 86%
20:00 -2°C° 0 mm 4 mps 766 mmHg 85%
21:00 -2°C° 0 mm 4 mps 767 mmHg 86%
22:00 -2°C° 0 mm 4 mps 767 mmHg 86%
23:00 -2°C° 0 mm 4 mps 767 mmHg 87%

Tomorrow, 29 November, Sunday

Time Temperature Precipitation Wind Pressure Humidity
00:00 -2°C° 0 mm 4 mps 767 mmHg 87%
01:00 -2°C° 0 mm 4 mps 767 mmHg 88%
02:00 -2°C° 0 mm 4 mps 767 mmHg 89%
03:00 -2°C° 0 mm 4 mps 767 mmHg 89%
04:00 -3°C° 0 mm 4 mps 767 mmHg 89%
05:00 -2°C° 0 mm 3 mps 767 mmHg 88%
06:00 -3°C° 0 mm 4 mps 767 mmHg 88%
07:00 -3°C° 0 mm 4 mps 767 mmHg 88%
08:00 -3°C° 0 mm 4 mps 767 mmHg 87%
09:00 -3°C° 0 mm 4 mps 767 mmHg 85%
10:00 -2°C° 0 mm 4 mps 767 mmHg 83%
11:00 -2°C° 0 mm 4 mps 767 mmHg 81%
12:00 -2°C° 0 mm 4 mps 766 mmHg 81%
13:00 -2°C° 0 mm 4 mps 766 mmHg 80%
14:00 -2°C° 0 mm 5 mps 766 mmHg 79%
15:00 -4°C° 0 mm 5 mps 765 mmHg 82%
16:00 -4°C° 0 mm 5 mps 765 mmHg 85%
17:00 -3°C° 0 mm 4 mps 764 mmHg 87%
18:00 -3°C° 0.2 mm 4 mps 764 mmHg 89%
19:00 -3°C° 0.2 mm 4 mps 764 mmHg 90%
20:00 -3°C° 0.2 mm 4 mps 764 mmHg 92%
21:00 -2°C° 0.4 mm 4 mps 764 mmHg 94%
22:00 0°C° 0.4 mm 3 mps 763 mmHg 95%
23:00 0°C° 0.4 mm 3 mps 763 mmHg 97%

Day after tomorrow, 30 November, Monday

Time Temperature Precipitation Wind Pressure Humidity
00:00 0°C° 0.3 mm 3 mps 763 mmHg 97%
01:00 +1°C° 0.3 mm 3 mps 763 mmHg 97%
02:00 +1°C° 0.3 mm 3 mps 763 mmHg 97%
03:00 0°C° 0 mm 3 mps 763 mmHg 96%
04:00 0°C° 0 mm 3 mps 762 mmHg 96%
05:00 -1°C° 0 mm 3 mps 762 mmHg 95%
06:00 -1°C° 0 mm 3 mps 762 mmHg 94%
07:00 -2°C° 0 mm 3 mps 763 mmHg 93%
08:00 -2°C° 0 mm 3 mps 763 mmHg 92%
09:00 -2°C° 0 mm 3 mps 763 mmHg 90%
10:00 -2°C° 0 mm 3 mps 763 mmHg 88%
11:00 -1°C° 0 mm 3 mps 763 mmHg 86%
12:00 -1°C° 0 mm 3 mps 762 mmHg 84%
13:00 -1°C° 0 mm 3 mps 762 mmHg 83%
14:00 -1°C° 0 mm 3 mps 762 mmHg 82%
15:00 -1°C° 0 mm 3 mps 762 mmHg 84%
16:00 -2°C° 0 mm 4 mps 762 mmHg 86%
17:00 -2°C° 0 mm 4 mps 762 mmHg 88%
18:00 -2°C° 0 mm 4 mps 762 mmHg 89%
19:00 -3°C° 0 mm 4 mps 762 mmHg 89%
20:00 -3°C° 0 mm 4 mps 762 mmHg 89%
21:00 -3°C° 0 mm 4 mps 762 mmHg 89%
22:00 -3°C° 0 mm 4 mps 762 mmHg 88%
23:00 -3°C° 0 mm 4 mps 762 mmHg 88%

1 December, Tuesday

Time Temperature Precipitation Wind Pressure Humidity
00:00 -3°C° 0 mm 4 mps 762 mmHg 86%
01:00 -3°C° 0 mm 4 mps 762 mmHg 84%
02:00 -3°C° 0 mm 4 mps 762 mmHg 83%
03:00 -3°C° 0 mm 4 mps 762 mmHg 83%
04:00 -3°C° 0 mm 4 mps 762 mmHg 83%
05:00 -4°C° 0 mm 4 mps 762 mmHg 83%
06:00 -4°C° 0 mm 4 mps 762 mmHg 85%
07:00 -4°C° 0 mm 5 mps 763 mmHg 87%
08:00 -4°C° 0 mm 5 mps 763 mmHg 88%
09:00 -4°C° 0 mm 5 mps 763 mmHg 86%
10:00 -2°C° 0 mm 5 mps 763 mmHg 85%
11:00 -2°C° 0 mm 4 mps 763 mmHg 83%
12:00 -2°C° 0 mm 5 mps 764 mmHg 84%
13:00 -1°C° 0 mm 5 mps 764 mmHg 85%
14:00 -1°C° 0 mm 5 mps 764 mmHg 86%
15:00 -1°C° 0 mm 5 mps 764 mmHg 87%
16:00 -2°C° 0 mm 5 mps 765 mmHg 87%
17:00 -2°C° 0 mm 5 mps 765 mmHg 87%
18:00 -2°C° 0 mm 5 mps 765 mmHg 87%
19:00 -2°C° 0 mm 4 mps 766 mmHg 87%
20:00 -2°C° 0 mm 4 mps 767 mmHg 86%
21:00 -2°C° 0 mm 4 mps 767 mmHg 86%
22:00 -2°C° 0 mm 4 mps 767 mmHg 85%
23:00 -2°C° 0 mm 4 mps 768 mmHg 85%

2 December, Wednesday

Time Temperature Precipitation Wind Pressure Humidity
00:00 -2°C° 0 mm 4 mps 768 mmHg 84%
01:00 -2°C° 0 mm 4 mps 768 mmHg 83%
02:00 -2°C° 0 mm 4 mps 768 mmHg 82%
03:00 -2°C° 0 mm 4 mps 769 mmHg 81%
04:00 -3°C° 0 mm 4 mps 769 mmHg 81%
05:00 -2°C° 0 mm 3 mps 769 mmHg 81%
06:00 -2°C° 0 mm 3 mps 769 mmHg 81%
07:00 -2°C° 0 mm 3 mps 769 mmHg 81%
08:00 -2°C° 0 mm 3 mps 769 mmHg 81%
09:00 -2°C° 0 mm 3 mps 770 mmHg 82%
10:00 -3°C° 0 mm 4 mps 770 mmHg 82%
11:00 -3°C° 0 mm 4 mps 770 mmHg 83%
12:00 -3°C° 0 mm 4 mps 770 mmHg 82%
13:00 -2°C° 0 mm 3 mps 770 mmHg 80%
14:00 -2°C° 0 mm 3 mps 770 mmHg 79%
15:00 -2°C° 0 mm 3 mps 769 mmHg 81%
16:00 -4°C° 0 mm 3 mps 769 mmHg 82%
17:00 -4°C° 0 mm 3 mps 769 mmHg 83%
18:00 -4°C° 0 mm 3 mps 769 mmHg 84%
19:00 -4°C° 0 mm 3 mps 769 mmHg 85%
20:00 -4°C° 0 mm 3 mps 769 mmHg 85%
21:00 -4°C° 0 mm 3 mps 769 mmHg 85%
22:00 -4°C° 0 mm 3 mps 769 mmHg 86%
23:00 -5°C° 0 mm 3 mps 769 mmHg 86%

3 December, Thursday

Time Temperature Precipitation Wind Pressure Humidity
00:00 -5°C° 0 mm 3 mps 768 mmHg 87%
01:00 -5°C° 0 mm 3 mps 768 mmHg 89%
02:00 -4°C° 0 mm 3 mps 768 mmHg 90%
03:00 -4°C° 0 mm 3 mps 768 mmHg 90%
04:00 -4°C° 0 mm 3 mps 767 mmHg 91%
05:00 -4°C° 0 mm 3 mps 767 mmHg 91%
06:00 -4°C° 0 mm 3 mps 767 mmHg 90%
07:00 -4°C° 0 mm 3 mps 767 mmHg 89%
08:00 -2°C° 0 mm 3 mps 766 mmHg 88%
09:00 -2°C° 0 mm 3 mps 766 mmHg 86%
10:00 -2°C° 0 mm 3 mps 766 mmHg 83%
11:00 -3°C° 0 mm 4 mps 766 mmHg 81%
12:00 -3°C° 0 mm 4 mps 766 mmHg 80%
13:00 -3°C° 0 mm 4 mps 766 mmHg 80%
14:00 -3°C° 0 mm 4 mps 766 mmHg 80%
15:00 -3°C° 0 mm 4 mps 765 mmHg 82%
16:00 -3°C° 0 mm 4 mps 765 mmHg 84%
17:00 -4°C° 0 mm 4 mps 765 mmHg 85%
18:00 -3°C° 0 mm 4 mps 765 mmHg 86%
19:00 -3°C° 0 mm 4 mps 765 mmHg 86%
20:00 -3°C° 0 mm 4 mps 765 mmHg 86%
21:00 -3°C° 0 mm 4 mps 765 mmHg 87%
22:00 -3°C° 0 mm 4 mps 765 mmHg 87%
23:00 -3°C° 0 mm 4 mps 765 mmHg 88%
Show more